{"data":{"norad_id":62273,"intl_designator":"2024-237G","name":"STARLINK-11333 [DTC]","alt_names":[],"object_type":"PAYLOAD","status":"ACTIVE","operator":null,"country":"US","launch_date":"2024-12-08","launch_site_code":"AFETR","launch_vehicle":null,"mission":null,"orbit_class":"UNKNOWN","rcs_meters":null,"size_class":null,"mass_kg":null,"dimensions":null,"purposes":["comms"],"wikipedia_slug":null,"has_3d_model":false,"image_url":null,"decayed_at":null,"tle_current":{"epoch":"2026-09-21T15:03:44.138016Z","epoch_age_seconds":80261,"freshness":"FRESH","line1":"1 62273U 24237G   26264.62759419  .00152470  00000+0  11682-2 0  9999","line2":"2 62273  43.0021 315.9712 0002346 271.4612  88.5987 15.70877653103860","mean_motion":15.70877653,"eccentricity":0.0002346,"inclination_deg":43.0021,"raan_deg":315.9712,"arg_perigee_deg":271.4612,"mean_anomaly_deg":88.5987,"bstar":0.0011682,"rev_number":10386,"period_min":91.668501187852,"perigee_km":354.80752496268,"apogee_km":357.96736383199,"semimajor_km":6734.5244443973,"source":"CELESTRAK","updated_at":"2026-09-22T09:00:49.566907Z"}}}